Regional Weather Roundup
Issued by NWS Northern Indiana

Home | Current Version | Previous Version | Text Only | Print | Product List | Glossary Off
Versions: 1 2 3 4 5 6 7 8 9 10 11 12 13 14 15 16 17 18 19 20 21 22 23 24 25 26 27 28 29 30 31 32 33 34 35 36 37 38 39 40 41 42 43 44 45 46 47 48 49 50

000
ASUS43 KIWX 012300
RWRIWX

KIWX WEATHER ROUNDUP
NATIONAL WEATHER SERVICE NORTHERN INDIANA
700 PM EDT MON SEP 01 2014

NOTE: "FAIR" INDICATES FEW OR NO CLOUDS BELOW 12,000 FEET WITH NO
SIGNIFICANT WEATHER AND/OR OBSTRUCTIONS TO VISIBILITY.

* THESE STATIONS ARE NOT UNDER NWS QUALITY CONTROL. THEY ALSO MAY NOT
  REPORT WEATHER SUCH AS PRECIPITATION OR FOG.

INZ001>027-020000-
NORTHERN INDIANA

CITY           SKY/WX    TMP DP  RH WIND       PRES   REMARKS
GARY*          PTSUNNY   82  64  54 SW12G28   29.79S
VALPARAISO     SUNNY     80  65  59 W13       29.81R
KNOX*          SUNNY     80  67  63 SW12G20   29.80S
SOUTH BEND     SUNNY     82  66  58 SW13      29.80R
ELKHART*       SUNNY     81  68  65 SW10      29.80R
GOSHEN         PTSUNNY   80  69  69 W8        29.81R
MONTICELLO*    MOSUNNY   80  66  63 W10G18    29.83R
ANGOLA*        CLOUDY    81  73  78 SW8       29.81R
FORT WAYNE     PTSUNNY   79  71  76 SW14G22   29.84S

$$
INZ028>050-020000-
CENTRAL INDIANA

CITY           SKY/WX    TMP DP  RH WIND       PRES   REMARKS
LAFAYETTE      PTSUNNY   79  65  62 W14       29.85R
KOKOMO*        PTSUNNY   81  70  69 W14       29.85R
MUNCIE*        PTSUNNY   82  69  64 SW14G23   29.87S
INDIANAPOLIS   PTSUNNY   80  69  69 SW18      29.87S

$$
MIZ043>046-050>051-056>058-064>065-071>073-077>080-020000-
SOUTHWEST LOWER MICHIGAN

CITY           SKY/WX    TMP DP  RH WIND       PRES   REMARKS
BATTLE CREEK   MOSUNNY   79  70  74 SW12      29.78R
BENTON HARBOR  SUNNY     79  65  62 W13       29.77R
COLDWATER*     MOSUNNY   80  71  74 SW12G20   29.79F
HILLSDALE*     PTSUNNY   76  74  93 W6        29.81S
HOLLAND        SUNNY     78  68  71 SW17G24   29.76R
GRAND RAPIDS   PTSUNNY   80  70  71 W18G28    29.76R
KALAMAZOO      MOSUNNY   81  70  69 SW7       29.77S
STURGIS*         N/A     79  72  78 SW10      29.79S
THREE RIVERS*  FAIR      82  70  67 SW10      29.79R

$$
OHZ001>008-015>018-024>025-020000-
NORTHWEST OHIO

CITY           SKY/WX    TMP DP  RH WIND       PRES   REMARKS
DEFIANCE       PTSUNNY   82  70  66 SW13G24   29.81S
FINDLAY        CLOUDY    78  71  79 SW12G23   29.84R
TOLEDO EXPRESS PTSUNNY   79  69  71 SW15G23   29.80R
TOLEDO METCALF PTSUNNY   76  69  79 SW13      29.81R
LIMA           PTSUNNY   82  70  66 SW18G25   29.87R

$$
&&


USA.gov is the U.S. government's official web portal to all federal, state and local government web resources and services.